EST,Max TemperatureF,Mean TemperatureF,Min TemperatureF,Max Dew PointF,MeanDew PointF,Min DewpointF,Max Humidity, Mean Humidity, Min Humidity, Max Sea Level PressureIn, Mean Sea Level PressureIn, Min Sea Level PressureIn, Max VisibilityMiles, Mean VisibilityMiles, Min VisibilityMiles, Max Wind SpeedMPH, Mean Wind SpeedMPH, Max Gust SpeedMPH,PrecipitationIn, CloudCover, Events, WindDirDegrees
2013-1-1,33,28,22,30,24,12,92,77,62,30.14,30.06,30.01,10,6,2,14,4,18,0.03,8,Snow,316
2013-1-2,26,18,9,12,10,6,84,67,50,30.28,30.21,30.09,10,9,6,12,2,14,0.00,1,,296
2013-1-3,32,18,3,19,11,-1,91,70,49,30.27,30.24,30.18,10,8,5,15,5,24,0.00,4,,234
2013-1-4,33,30,26,20,17,15,69,59,49,30.32,30.25,30.21,10,10,10,18,9,26,0.00,4,,248
2013-1-5,38,25,12,24,19,10,92,72,52,30.42,30.30,30.17,10,10,7,10,3,14,0.00,2,,193
2013-1-6,38,35,32,31,27,24,82,71,59,30.29,30.11,30.01,10,9,6,13,6,20,T,8,Snow,242
2013-1-7,35,29,22,25,23,19,81,69,56,30.50,30.40,30.31,9,6,3,12,3,15,0.00,5,,207
2013-1-8,44,29,14,27,21,14,92,71,49,30.39,30.33,30.28,10,6,2,9,4,14,0.00,0,,138
2013-1-9,48,34,20,37,29,20,88,69,49,30.53,30.33,30.24,10,10,6,14,5,21,0.04,3,Rain,201
2013-1-10,41,32,22,28,25,20,88,72,55,30.63,30.50,30.26,10,9,4,9,3,12,T,2,,122
2013-1-11,59,49,39,52,42,27,96,76,55,30.23,30.03,29.93,10,6,0,14,6,26,0.32,5,Fog-Rain,152
2013-1-12,63,56,48,56,53,48,100,86,72,30.08,30.01,29.91,10,8,0,13,5,17,T,6,Fog-Rain,165
2013-1-13,67,55,43,56,53,41,86,75,63,30.01,29.88,29.81,10,9,3,25,9,32,0.19,6,Rain,197
2013-1-14,43,36,29,39,27,19,89,74,59,30.43,30.26,30.02,10,10,5,18,7,29,T,6,Rain,326
2013-1-15,35,30,24,22,20,19,81,69,56,30.42,30.32,30.11,10,10,8,12,4,14,0.00,3,,25
2013-1-16,36,33,30,28,27,21,92,78,63,30.08,30.00,29.92,10,7,2,13,4,26,0.00,6,,218
2013-1-17,37,33,29,27,25,17,75,67,58,30.27,30.15,30.04,10,10,8,20,5,26,0.00,6,,261
2013-1-18,35,27,19,18,13,8,67,55,43,30.54,30.41,30.25,10,10,10,20,7,26,0.00,1,,218
2013-1-19,54,44,34,23,20,17,52,38,24,30.23,30.07,29.86,10,10,10,20,10,30,0.00,0,,208
2013-1-20,48,37,25,30,16,11,60,50,39,30.20,30.05,29.81,10,10,10,28,12,40,0.00,3,,281
2013-1-21,25,18,11,18,11,-2,84,65,46,30.17,30.04,29.95,10,5,0,18,7,28,T,7,Snow,268
2013-1-22,14,9,4,2,-2,-5,76,65,53,30.35,30.28,30.17,10,9,2,16,7,23,T,5,Snow,265
2013-1-23,18,10,1,12,4,-4,88,68,47,30.36,30.24,30.07,10,7,2,10,2,14,T,6,Snow,210
2013-1-24,24,17,10,12,7,0,84,62,39,30.60,30.39,30.06,10,8,2,14,5,18,T,4,Snow,323
2013-1-25,20,16,12,16,10,3,84,72,59,30.53,30.19,30.03,10,6,0,10,4,14,0.12,7,Snow,136
2013-1-26,27,21,14,20,17,11,88,72,55,30.49,30.25,30.09,10,7,2,14,4,17,T,8,Snow,284
2013-1-27,32,19,5,20,14,4,92,73,53,30.57,30.47,30.32,10,9,5,10,3,14,T,2,Snow,131
2013-1-28,51,41,31,48,38,21,96,87,78,30.27,30.11,30.01,9,5,2,12,6,18,0.30,8,Rain,177
2013-1-29,66,58,49,54,50,48,96,77,58,30.07,29.97,29.73,10,6,0,16,7,26,0.01,6,Fog-Rain,188
2013-1-30,68,53,38,56,48,32,87,73,58,29.68,29.41,29.22,10,9,1,26,12,37,0.46,6,Rain,203
2013-1-31,38,30,21,32,20,12,82,72,62,29.91,29.68,29.36,10,6,1,26,12,40,0.03,8,Rain-Snow,261